Grant County, OR

6:44 AM PDT on July 28, 2017 (GMT -0700)
Grant County Regional

Weather History for KGCD - January, 2014

Change the Weather History Date:

Tuesday, January 28, 2014

  Actual Average (KBNO) Record (KBNO)
Temperature  
Mean Temperature 34 °F -  
Max Temperature 43 °F 34 °F 51 °F (1975)
Min Temperature 25 °F 15 °F -10 °F (1971)
Degree Days  
Heating Degree Days 31    
Moisture  
Dew Point 28 °F    
Average Humidity 78    
Maximum Humidity 95    
Minimum Humidity 57    
Precipitation  
Precipitation 0.13 in - - ()
Sea Level Pressure  
Sea Level Pressure 30.19 in    
Wind  
Wind Speed 3 mph (East)    
Max Wind Speed 12 mph    
Max Gust Speed -    
Visibility 10 miles    
Events Rain    
Averages and records for this station are not official NWS values.
T = Trace of Precipitation, MM = Missing Value Source: NWS Daily Summary

Daily Weather History Graph

Daily Weather History Graph

Search for Another Location

Airport or City:

Trip Planner

Search our weather history database for the weather conditions in past years. The results will help you decide how hot, cold, wet, or windy it might be!

Date:

Astronomy

Jan. 28, 2014 Rise Set
Actual Time 7:18 AM PST 4:59 PM PST
Civil Twilight 6:47 AM PST 5:31 PM PST
Nautical Twilight 6:12 AM PST 6:06 PM PST
Astronomical Twilight 5:37 AM PST 6:40 PM PST
Moon 5:06 AM PST 2:54 PM PST
Length of Visible Light 10h 44m
Length of Day
9h 41m
Waning Crescent, 6% of the Moon is Illuminated
Jan 28
Waning Crescent
Jan 30
New
Feb 6
First Quarter
Feb 14
Full
Feb 22
Last Quarter

Hourly Weather History & Observations

Time (PST) Temp. Windchill Dew Point Humidity Pressure Visibility Wind Dir Wind Speed Gust Speed Precip Events Conditions
12:15 AM 27.7 °F 23.8 °F 24.6 °F 88% 30.26 in 10.0 mi West 3.5 mph - N/A   Clear
12:35 AM 27.9 °F 24.0 °F 24.8 °F 88% 30.26 in 10.0 mi WNW 3.5 mph - N/A   Clear
12:55 AM 27.3 °F - 24.4 °F 89% 30.26 in 10.0 mi Calm Calm - N/A   Scattered Clouds
1:15 AM 27.1 °F 21.8 °F 24.1 °F 88% 30.26 in 10.0 mi West 4.6 mph - N/A   Scattered Clouds
1:35 AM 26.6 °F - 23.9 °F 90% 30.26 in 10.0 mi Calm Calm - N/A   Scattered Clouds
1:55 AM 27.0 °F - 24.3 °F 90% 30.27 in 10.0 mi Calm Calm - N/A   Clear
2:15 AM 26.6 °F - 23.9 °F 90% 30.28 in 10.0 mi Calm Calm - N/A   Clear
2:35 AM 26.6 °F - 24.3 °F 91% 30.27 in 10.0 mi Calm Calm - N/A   Clear
2:55 AM 26.6 °F 22.6 °F 24.1 °F 90% 30.27 in 10.0 mi East 3.5 mph - N/A   Clear
3:15 AM 26.6 °F - 24.3 °F 91% 30.26 in 10.0 mi Calm Calm - N/A   Scattered Clouds
3:35 AM 26.4 °F - 23.9 °F 90% 30.26 in 10.0 mi Calm Calm - N/A   Scattered Clouds
3:55 AM 26.4 °F - 23.9 °F 90% 30.26 in 10.0 mi Calm Calm - N/A   Scattered Clouds
4:15 AM 26.8 °F - 24.3 °F 90% 30.26 in 10.0 mi Calm Calm - N/A   Mostly Cloudy
4:35 AM 27.7 °F - 24.4 °F 88% 30.25 in 10.0 mi Calm Calm - N/A   Overcast
4:55 AM 27.1 °F - 24.3 °F 89% 30.25 in 10.0 mi Calm Calm - N/A   Scattered Clouds
5:15 AM 26.6 °F - 24.1 °F 90% 30.25 in 10.0 mi Calm Calm - N/A   Clear
5:35 AM 26.4 °F 20.9 °F 23.9 °F 90% 30.25 in 10.0 mi East 4.6 mph - N/A   Clear
5:55 AM 26.4 °F 19.8 °F 23.9 °F 90% 30.24 in 10.0 mi East 5.8 mph - N/A   Clear
6:15 AM 25.7 °F 20.1 °F 23.7 °F 92% 30.24 in 10.0 mi East 4.6 mph - N/A   Clear
6:35 AM 26.2 °F 18.6 °F 24.3 °F 92% 30.25 in 10.0 mi East 6.9 mph - N/A   Clear
6:55 AM 27.1 °F 19.7 °F 24.8 °F 91% 30.24 in 10.0 mi East 6.9 mph - N/A   Mostly Cloudy
7:15 AM 26.6 °F 17.5 °F 24.4 °F 92% 30.24 in 10.0 mi East 9.2 mph - N/A   Mostly Cloudy
7:35 AM 27.1 °F 19.7 °F 24.6 °F 90% 30.25 in 10.0 mi ESE 6.9 mph - N/A   Scattered Clouds
7:55 AM 27.3 °F 23.4 °F 25.2 °F 92% 30.25 in 10.0 mi East 3.5 mph - N/A   Scattered Clouds
8:15 AM 28.6 °F 20.7 °F 25.5 °F 88% 30.24 in 10.0 mi East 8.1 mph - N/A   Overcast
8:35 AM 29.5 °F 23.4 °F 26.1 °F 87% 30.25 in 10.0 mi East 5.8 mph - N/A   Overcast
8:55 AM 30.7 °F 26.0 °F 26.8 °F 85% 30.25 in 10.0 mi ESE 4.6 mph - N/A   Mostly Cloudy
9:15 AM 31.5 °F 24.2 °F 26.8 °F 83% 30.24 in 10.0 mi East 8.1 mph - N/A   Scattered Clouds
9:35 AM 33.1 °F 26.9 °F 27.5 °F 80% 30.24 in 10.0 mi East 6.9 mph - N/A   Scattered Clouds
9:55 AM 33.4 °F 26.6 °F 27.3 °F 78% 30.24 in 10.0 mi East 8.1 mph - N/A   Overcast
10:15 AM 35.4 °F 30.5 °F 27.7 °F 73% 30.25 in 10.0 mi East 5.8 mph - N/A   Overcast
10:35 AM 35.8 °F 30.9 °F 27.5 °F 72% 30.25 in 10.0 mi East 5.8 mph - N/A   Overcast
10:55 AM 36.7 °F 32.9 °F 27.7 °F 70% 30.24 in 10.0 mi East 4.6 mph - N/A   Overcast
11:15 AM 37.9 °F 31.5 °F 27.7 °F 67% 30.22 in 10.0 mi East 9.2 mph - N/A   Overcast
11:35 AM 39.0 °F 34.0 °F 27.3 °F 63% 30.23 in 10.0 mi East 6.9 mph - N/A   Overcast
11:55 AM 40.5 °F - 26.4 °F 57% 30.22 in 10.0 mi Calm Calm - N/A   Overcast
12:15 PM 40.1 °F - 27.5 °F 61% 30.21 in 10.0 mi Calm Calm - N/A   Overcast
12:35 PM 40.5 °F - 27.1 °F 59% 30.22 in 10.0 mi Calm Calm - N/A   Overcast
12:55 PM 38.1 °F 35.7 °F 29.3 °F 71% 30.20 in 10.0 mi WNW 3.5 mph - N/A   Overcast
1:15 PM 37.6 °F - 29.3 °F 72% 30.19 in 10.0 mi Calm Calm - N/A   Overcast
1:35 PM 38.3 °F - 29.3 °F 70% 30.19 in 10.0 mi Calm Calm - N/A   Overcast
1:55 PM 39.2 °F - 29.8 °F 69% 30.19 in 10.0 mi Calm Calm - N/A   Overcast
2:15 PM 40.8 °F - 29.5 °F 64% 30.17 in 10.0 mi Calm Calm - N/A   Overcast
2:35 PM 40.3 °F - 29.7 °F 66% 30.17 in 10.0 mi Calm Calm - N/A   Overcast
2:55 PM 41.4 °F - 29.3 °F 62% 30.16 in 10.0 mi Calm Calm - N/A   Overcast
3:15 PM 41.2 °F - 28.2 °F 60% 30.16 in 10.0 mi Calm Calm - N/A   Overcast
3:35 PM 41.0 °F 36.4 °F 28.9 °F 62% 30.14 in 10.0 mi East 6.9 mph - N/A   Overcast
3:55 PM 42.3 °F 39.4 °F 28.4 °F 58% 30.16 in 10.0 mi East 4.6 mph - N/A   Overcast
4:15 PM 42.1 °F 38.4 °F 28.4 °F 58% 30.16 in 10.0 mi East 5.8 mph - N/A   Overcast
4:35 PM 41.9 °F 38.2 °F 28.9 °F 60% 30.16 in 10.0 mi East 5.8 mph - N/A   Overcast
4:55 PM 42.1 °F 39.2 °F 28.9 °F 60% 30.14 in 10.0 mi East 4.6 mph - N/A   Overcast
5:15 PM 42.6 °F 39.0 °F 28.4 °F 57% 30.16 in 10.0 mi East 5.8 mph - N/A   Overcast
5:35 PM 42.4 °F 38.8 °F 28.4 °F 58% 30.16 in 10.0 mi East 5.8 mph - N/A   Overcast
5:55 PM 41.9 °F 39.0 °F 28.4 °F 59% 30.14 in 10.0 mi East 4.6 mph - N/A   Overcast
6:15 PM 42.4 °F 38.8 °F 28.4 °F 58% 30.14 in 10.0 mi East 5.8 mph - N/A   Overcast
6:35 PM 42.4 °F 38.1 °F 29.1 °F 59% 30.14 in 10.0 mi East 6.9 mph - N/A   Overcast
6:55 PM 43.0 °F 38.2 °F 29.3 °F 59% 30.14 in 10.0 mi East 8.1 mph - N/A   Overcast
7:15 PM 43.0 °F 38.8 °F 28.9 °F 58% 30.12 in 10.0 mi East 6.9 mph - N/A   Overcast
7:35 PM 42.3 °F 38.6 °F 31.3 °F 65% 30.12 in 10.0 mi NE 5.8 mph - N/A   Drizzle
7:55 PM 42.1 °F - 32.5 °F 69% 30.12 in 10.0 mi Calm Calm - 0.01 in Rain Light Rain
8:15 PM 42.4 °F - 34.3 °F 73% 30.11 in 10.0 mi Calm Calm - 0.01 in Rain Light Rain
8:35 PM 43.0 °F - 36.0 °F 76% 30.11 in 10.0 mi Calm Calm - 0.02 in Rain Light Rain
8:55 PM 42.3 °F - 36.3 °F 79% 30.11 in 10.0 mi Calm Calm - 0.02 in Rain Light Rain
9:15 PM 40.5 °F 36.5 °F 35.8 °F 83% 30.11 in 10.0 mi East 5.8 mph - 0.01 in Rain Light Rain
9:35 PM 39.7 °F 33.7 °F 36.7 °F 89% 30.09 in 10.0 mi East 9.2 mph - 0.03 in Rain Light Rain
9:55 PM 39.7 °F 33.7 °F 36.9 °F 89% 30.09 in 10.0 mi East 9.2 mph - 0.04 in Rain Light Rain
10:15 PM 38.3 °F 34.8 °F 36.3 °F 93% 30.10 in 10.0 mi East 4.6 mph - 0.01 in Rain Light Rain
10:35 PM 38.1 °F 31.7 °F 36.0 °F 92% 30.08 in 10.0 mi ENE 9.2 mph - 0.02 in Rain Light Rain
10:55 PM 38.5 °F 33.4 °F 36.7 °F 93% 30.07 in 10.0 mi East 6.9 mph - 0.04 in Rain Light Rain
11:15 PM 37.9 °F 30.5 °F 36.5 °F 95% 30.06 in 10.0 mi ENE 11.5 mph - N/A Rain Light Rain
11:35 PM 37.8 °F 30.7 °F 36.5 °F 95% 30.05 in 10.0 mi East 10.4 mph - 0.01 in   Light Drizzle
11:55 PM 38.5 °F 32.1 °F 36.7 °F 93% 30.03 in 10.0 mi East 9.2 mph - 0.02 in   Light Drizzle